Starlink 1378

decayed
NORAD ID: 45548 Int'l Des: 2020-025 Owner: SPXS Country: US Constellation: starlink
LEOCIRCULAR
Gruppe

Über Starlink 1378

Beschreibung wird geladen...

Höhenverlauf

Altitude vs Time

uPlot chart will show altitude changes over time

Zweizeiliger Elementsatz

1 45548U 20025T 25056.43432917 .07610854 12212-4 74662-3 0 9997
2 45548 53.0240 312.3938 0007118 223.0942 306.1564 16.37409185268229
Epoch: 25. Feb. 2025 • Age: 6073 hours

Aktueller Status

Position data unavailable
Startdatum 22. Apr. 2020
Alter 5.5 years
Verglühungsdatum 25. Feb. 2025
Typ internet

Technische Details

Klassifizierung Payload
Masse 260.00 kg
Trockenmasse 248.00 kg
Gesamtmasse 260.00 kg
Länge 0.20 m
Durchmesser 2.80 m
Spannweite 9.00 m
Form Box + pan
Hersteller SPXS
Bus-Typ Starlink
Phasenstatus Reentered
Besitzer/Staat SPXS/US

Große Konstellationen

Loading constellations...